STARLINK-32352, 61847

Orbit data source: Space-Track

STARLINK-32352, 61847 is a payload satellite owned by SpaceX/Seattle (US) in LEO that was launched on Thu, 07 Nov 2024 UTC via an FALCON 9 launch vehicle from the Air Force Eastern Test Range (AFETR). Payload-class satellites include a variety of spacecraft equipped with specific instruments for various scientific and technological missions. These include communications satellites like Starlink; space stations such as the ISS; scientific satellites like the Hubble; Earth observation satellites from companies like Planet Labs, Umbra, and HawkEye 360; GPS; miniature CubeSats for education and research; and military/defense satellites.

Loading next visibility...
Identifier
61847, 2024-202C
Orbit
LEO
Country
Flag of USUS
Related business
Manufacturer
SpaceX/Seattle
Mission
Operational Commercial Communications
Bus & Motor
STARLINK V2M, Unknown motor
Mass
730 kg wet, ~700 kg dry
Launch date (UTC)
2024-11-07 (1 year ago)
Launch vehicle
FALCON 9
Launch site
Air Force Eastern Test Range (AFETR)
Object type
Payload
Rocket body
Debris
Shape & HBR
Box + 2 Pan, 17.7 m
Radar Cross Section
33.884 m², Large (>1 m²)

Expand to show TLE details & history
Last TLE update: 19 hours ago

TLE from 19 hours ago
0 STARLINK-32352
1 61847U 24202C   25312.69452279  .00010095  00000-0  37654-3 0  9996
2 61847  43.0029 190.0030 0000865 169.4052 190.6818 15.27520738 56964
Epoch: 2025-11-08T16:40Z
TLE epoch observation values (Epoch: 2025-11-08T16:40:06.769Z)
Latitude
-0°
Longitude
-108.14566°
Altitude
483.585 km
Speed
7.625 km/s
True Right ascension
12h 40m 00s
True Declination
0° 00' 00"
Sunlit
Object was in daylight at epoch
Visualization orbit readout
Latitude
Unknown
Longitude
Unknown
Altitude
Unknown
Speed
Unknown
Apparent Right ascension
Unknown
Apparent Declination
Unknown
Sunlit
N/A
Visualization observer readout
Local Sidereal Time
07:29:22
Azimuth
Unknown
Elevation
Unknown
Doppler factor
Unknown
Orbital elements
Apogee altitude
485.765 km
Perigee altitude
484.578 km
Semi-major axis
6,863.308 km
Eccentricity
0.00009
Inclination
43.0029°
RAAN
190.003°
Arg. of periapsis
169.4052°
True anomaly
190.67996°
Mean anomaly
190.6818°
Eccentric anomaly
190.68088°
Mean motion
3.81718 °/min
Orbital period
94.31 mins
BSTAR
0.00037654
Loading maneuver chart data...
Computing Atmospheric mass density...
Loading historical data...
Loading historical data...
Loading historical data...
Loading historical data...
Loading historical data...
Loading historical data...
Loading historical data...

Documentation

Showing up to 5 results
|